CW3007 Weather Reports


time (UTC)temp
C
wind
direction
speed
KPH
gust
KPH
rain 1hr
cm
rain 24hr
cm
rain mn
cm
humidity
%
barometer
mb
20260509222631 32 117 0.0 9.7 0.00 0.00 0.00 52 1006.3
20260509221631 32 111 1.6 11.3 0.00 0.00 0.00 54 1006.2
20260509220631 32 188 0.0 6.4 0.00 0.00 0.00 51 1006.3
20260509215631 31 175 0.0 9.7 0.00 0.00 0.00 53 1006.3
20260509214631 31 113 0.0 11.3 0.00 0.00 0.00 54 1006.4
20260509213631 31 100 4.8 6.4 0.00 0.00 0.00 55 1006.6
20260509212631 31 138 3.2 9.7 0.00 0.00 0.00 55 1006.7
20260509210631 31 105 3.2 9.7 0.00 0.00 0.00 55 1007.0
20260509204631 31 45 3.2 6.4 0.00 0.00 0.00 55 1007.3
20260509203631 30 258 1.6 9.7 0.00 0.00 0.00 56 1007.4
20260509202631 30 164 3.2 17.7 0.00 0.00 0.00 56 1007.5
20260509201631 29 141 4.8 16.1 0.00 0.00 0.00 57 1007.9
20260509200631 28 179 9.7 27.4 0.00 0.00 0.00 55 1008.2
20260509195631 31 184 3.2 8.0 0.00 0.00 0.00 53 1008.3
20260509194631 31 60 4.8 12.9 0.00 0.00 0.00 55 1008.5
20260509193631 31 20 6.4 12.9 0.00 0.00 0.00 58 1008.4
20260509192631 30 317 9.7 17.7 0.00 0.00 0.00 59 1008.3
20260509191631 30 296 3.2 14.5 0.00 0.00 0.00 61 1008.1
20260509190631 30 337 6.4 14.5 0.00 0.00 0.00 65 1008.2
20260509184631 29 323 4.8 14.5 0.00 0.00 0.00 67 1008.7
20260509182631 28 315 6.4 14.5 0.00 0.00 0.00 68 1008.9
20260509181631 30 306 6.4 17.7 0.00 0.00 0.00 67 1009.0
20260509180631 30 313 6.4 16.1 0.00 0.00 0.00 70 1009.1
20260509175631 30 304 3.2 16.1 0.00 0.00 0.00 71 1009.1
20260509172631 28 248 0.0 8.0 0.00 0.00 0.00 71 1009.5
20260509171631 28 255 3.2 8.0 0.00 0.00 0.00 71 1009.5
20260509170631 28 227 4.8 11.3 0.00 0.00 0.00 72 1009.6
20260509165631 28 193 0.0 11.3 0.00 0.00 0.00 72 1009.8
20260509164631 27 254 8.0 11.3 0.00 0.00 0.00 74 1009.5
20260509163631 27 188 0.0 11.3 0.00 0.00 0.00 75 1009.6
20260509161631 27 217 6.4 11.3 0.00 0.00 0.00 75 1009.9
20260509160631 27 171 11.3 12.9 0.00 0.00 0.00 77 1009.8
20260509155631 26 222 4.8 14.5 0.00 0.00 0.00 79 1009.8
20260509153631 26 121 11.3 20.9 0.00 0.00 0.00 80 1009.6
20260509152631 26 217 9.7 25.7 0.00 0.00 0.00 81 1009.0
20260509151631 26 183 14.5 24.1 0.00 0.00 0.00 81 1008.9
20260509150631 26 195 12.9 22.5 0.00 0.00 0.00 80 1009.0
20260509145630 26 153 17.7 25.7 0.00 0.00 0.00 81 1008.9
20260509144631 26 186 11.3 22.5 0.00 0.00 0.00 83 1008.8
20260509143631 26 171 20.9 20.9 0.00 0.00 0.00 84 1008.7
20260509142630 25 207 4.8 17.7 0.00 0.00 0.00 86 1008.5
20260509140631 24 188 9.7 17.7 0.00 0.00 0.00 89 1008.4
20260509135630 24 181 4.8 19.3 0.00 0.00 0.00 90 1008.4
20260509134631 23 180 6.4 17.7 0.00 0.00 0.00 91 1008.2
20260509133631 23 171 9.7 20.9 0.00 0.00 0.00 90 1008.4
20260509132630 23 185 11.3 19.3 0.00 0.00 0.00 90 1008.6
20260509131631 22 180 12.9 17.7 0.00 0.00 0.00 90 1008.5
20260509130630 22 169 9.7 17.7 0.00 0.00 0.00 90 1008.9
20260509125631 22 199 4.8 11.3 0.00 0.00 0.00 90 1008.8
20260509124630 22 197 6.4 8.0 0.00 0.00 0.00 90 1008.8
20260509123631 22 182 3.2 4.8 0.00 0.00 0.00 90 1008.9
20260509121631 22 26 1.6 3.2 0.00 0.00 0.00 90 1008.9
20260509120630 22 336 0.0 6.4 0.00 0.00 0.00 90 1008.9
20260509115630 22 340 0.0 3.2 0.00 0.00 0.00 90 1009.1
20260509114631 22 236 3.2 4.8 0.00 0.00 0.00 89 1009.3
20260509113630 22 154 0.0 4.8 0.00 0.00 0.00 89 1009.5
20260509112630 22 171 3.2 3.2 0.00 0.00 0.00 89 1009.9
20260509105631 22 306 0.0 1.6 0.00 0.00 0.00 90 1010.5
20260509103630 22 5 0.0 1.6 0.00 0.00 0.00 90 1010.5
20260509102630 22 5 0.0 0.0 0.00 0.00 0.00 89 1010.5
20260509101630 22 5 0.0 6.4 0.00 0.00 0.00 89 1010.2
20260509100630 22 43 4.8 6.4 0.00 0.00 0.00 89 1010.0
20260509095630 22 17 4.8 6.4 0.00 0.00 0.00 89 1009.8
20260509094631 22 350 3.2 6.4 0.00 0.00 0.00 89 1009.7
20260509093630 22 285 0.0 0.0 0.00 0.00 0.00 89 1009.3
20260509092630 22 220 0.0 4.8 0.00 0.00 0.00 89 1008.9
20260509091630 22 161 0.0 0.0 0.00 0.00 0.00 89 1008.6
20260509085630 22 162 0.0 0.0 0.00 0.00 0.00 89 1008.8
20260509083630 22 190 0.0 0.0 0.00 0.00 0.00 88 1009.3
20260509082630 22 170 0.0 0.0 0.00 0.00 0.00 89 1009.4
20260509075630 22 122 0.0 0.0 0.00 0.00 0.00 88 1009.6
20260509074630 22 122 0.0 3.2 0.00 0.00 0.00 88 1009.4
20260509073630 22 254 1.6 8.0 0.00 0.00 0.00 88 1009.8
20260509072630 22 177 1.6 11.3 0.00 0.00 0.00 88 1009.7
20260509071630 22 180 8.0 9.7 0.00 0.00 0.00 87 1009.9
20260509070630 22 184 4.8 8.0 0.00 0.00 0.00 87 1009.9
20260509064630 22 198 6.4 6.4 0.00 0.00 0.00 87 1009.6
20260509063630 23 182 4.8 6.4 0.00 0.00 0.00 87 1009.8
20260509062630 23 146 3.2 8.0 0.00 0.00 0.00 86 1009.8
20260509061630 23 153 6.4 9.7 0.00 0.00 0.00 86 1009.5
20260509060630 23 126 3.2 12.9 0.00 0.00 0.00 85 1009.5
20260509055630 23 188 3.2 17.7 0.00 0.00 0.00 85 1009.6
20260509054630 23 162 6.4 12.9 0.00 0.00 0.00 85 1009.3
20260509053630 23 163 8.0 14.5 0.00 0.00 0.00 85 1008.8
20260509052630 23 136 6.4 14.5 0.00 0.00 0.00 84 1008.5
20260509051630 23 150 3.2 12.9 0.00 0.00 0.00 84 1008.5
20260509050630 23 169 6.4 11.3 0.00 0.00 0.00 84 1008.4
20260509045630 23 148 4.8 9.7 0.00 0.00 0.00 84 1008.4
20260509044630 23 158 4.8 11.3 0.00 0.00 0.00 84 1008.6
20260509043630 23 186 3.2 9.7 0.00 0.00 0.00 84 1008.8
20260509042630 23 212 3.2 8.0 0.00 0.00 0.00 84 1008.8
20260509041630 23 146 3.2 11.3 0.00 0.00 0.00 84 1008.9
20260509040630 23 184 3.2 9.7 0.00 0.00 0.00 85 1008.9
20260509035630 23 166 1.6 4.8 0.00 0.00 0.00 84 1009.0
20260509034630 23 126 3.2 4.8 0.00 0.00 0.00 84 1009.0
20260509033630 23 138 0.0 6.4 0.00 0.00 0.00 84 1008.8
20260509032630 23 154 1.6 4.8 0.00 0.00 0.00 84 1008.5
20260509030630 23 157 0.0 6.4 0.00 0.00 0.00 83 1008.4
20260509025630 23 139 3.2 4.8 0.00 0.00 0.00 82 1008.3
20260509023630 23 118 0.0 3.2 0.00 0.00 0.00 81 1008.4
20260509022630 23 148 1.6 4.8 0.00 0.00 0.00 81 1008.3
20260509021630 24 119 0.0 6.4 0.00 0.00 0.00 81 1008.0
20260509020630 24 119 1.6 6.4 0.00 0.00 0.00 80 1008.0
20260509015630 24 149 3.2 4.8 0.00 0.00 0.00 80 1007.8
20260509014630 25 126 0.0 6.4 0.00 0.00 0.00 79 1007.8
20260509013630 25 144 4.8 6.4 0.00 0.00 0.00 79 1007.6
20260509012630 25 118 1.6 6.4 0.00 0.00 0.00 78 1007.7
20260509011630 25 113 4.8 6.4 0.00 0.00 0.00 78 1007.6
20260509010630 25 115 3.2 11.3 0.00 0.00 0.00 77 1007.7
20260509005630 25 100 1.6 11.3 0.00 0.00 0.00 77 1007.7
20260509004630 25 105 3.2 16.1 0.00 0.00 0.00 77 1007.5
20260509003630 25 121 4.8 12.9 0.00 0.00 0.00 76 1007.6
20260509002630 25 88 4.8 11.3 0.00 0.00 0.00 76 1007.6
20260509001630 25 121 3.2 11.3 0.00 0.00 0.00 76 1007.6
20260509000630 25 86 8.0 12.9 0.00 0.00 0.00 75 1007.7
20260508235630 25 138 8.0 14.5 0.00 0.00 0.00 75 1007.6
20260508234630 26 84 11.3 14.5 0.00 0.00 0.00 75 1007.8
20260508233630 25 111 3.2 9.7 0.00 0.00 0.00 75 1007.7
20260508232630 25 109 4.8 11.3 0.00 0.00 0.00 75 1007.7
20260508231630 26 99 3.2 9.7 0.00 0.00 0.00 74 1007.8
20260508230630 26 111 1.6 12.9 0.00 0.00 0.00 74 1007.8
20260508225630 26 136 4.8 11.3 0.00 0.00 0.00 74 1007.7
20260508224630 26 92 9.7 12.9 0.00 0.00 0.00 74 1007.7
20260508223630 26 93 6.4 16.1 0.00 0.00 0.00 74 1007.7